This is the latest recevied weather packets stored in our database for station/object AB1AU. If no packets are shown the sender has not sent any weather packets the latest 10 day(s).
| Time | Temp. | Humidity | Pressure | Rain* | Wind** | Luminosity | Snow |
|---|---|---|---|---|---|---|---|
| 1777664676 | 15.56° C | 41% | 1007.5 hPa | 0 mm | - | 336 W/m² | - |
| 1777664372 | 15.56° C | 41% | 1007.7 hPa | 0 mm | - | 178 W/m² | - |
| 1777664070 | 16.11° C | 40% | 1007.6 hPa | 0 mm | - | 334 W/m² | - |
| 1777663768 | 16.11° C | 40% | 1007.7 hPa | 0 mm | - | 370 W/m² | - |
| 1777663465 | 15.56° C | 41% | 1007.7 hPa | 0 mm | - | 163 W/m² | - |
| 1777663162 | 15.56° C | 41% | 1007.7 hPa | 0 mm | - | 284 W/m² | - |
| 1777662859 | 15.56° C | 40% | 1007.7 hPa | 0 mm | - | 265 W/m² | - |
| 1777662556 | 15.56° C | 41% | 1007.5 hPa | 0 mm | - | 343 W/m² | - |
| 1777662252 | 15.56° C | 41% | 1007.6 hPa | 0 mm | - | 215 W/m² | - |
| 1777661952 | 15.56° C | 43% | 1007.7 hPa | 0 mm | - | 179 W/m² | - |
| 1777661648 | 15.56° C | 41% | 1007.7 hPa | 0 mm | - | 509 W/m² | - |
| 1777661344 | 15.56° C | 41% | 1007.5 hPa | 0 mm | - | 116 W/m² | - |
| 1777661040 | 15° C | 42% | 1007.5 hPa | 0 mm | - | 276 W/m² | - |
| 1777660735 | 15° C | 42% | 1007.6 hPa | 0 mm | - | 522 W/m² | - |
| 1777660433 | 15° C | 43% | 1007.5 hPa | 0 mm | - | 511 W/m² | - |
| 1777660129 | 15° C | 41% | 1007.7 hPa | 0 mm | - | 50 W/m² | - |
| 1777659826 | 15° C | 42% | 1007.4 hPa | 0 mm | - | 553 W/m² | - |
| 1777659523 | 15° C | 41% | 1007.5 hPa | 0 mm | - | 334 W/m² | - |
| 1777659220 | 15° C | 42% | 1007.7 hPa | 0 mm | - | 415 W/m² | - |
| 1777658918 | 15° C | 43% | 1007.6 hPa | 0 mm | - | 499 W/m² | - |
| 1777658613 | 14.44° C | 43% | 1007.6 hPa | 0 mm | - | 278 W/m² | - |
| 1777658311 | 14.44° C | 43% | 1007.6 hPa | 0 mm | - | 254 W/m² | - |
| 1777658007 | 15° C | 43% | 1007.4 hPa | 0 mm | - | 324 W/m² | - |
| 1777657704 | 14.44° C | 43% | 1007.5 hPa | 0 mm | - | 228 W/m² | - |
| 1777657401 | 14.44° C | 44% | 1007.6 hPa | 0 mm | - | 137 W/m² | - |
* Rain latest hour (hover to see other rain measurements)
** Current wind speed in m/s (hover to see current wind gust speed)